Index of /20260504/WXO-DD/model_gdps/15km/12/012
Name Last modified Size Description
Parent Directory -
20260504T12Z_MSC_GDPS_AbsoluteVorticity_IsbL-0200_LatLon0.15_PT012H.grib2 2026-05-04 16:06 1.5M
20260504T12Z_MSC_GDPS_AbsoluteVorticity_IsbL-0250_LatLon0.15_PT012H.grib2 2026-05-04 16:06 1.3M
20260504T12Z_MSC_GDPS_AbsoluteVorticity_IsbL-0500_LatLon0.15_PT012H.grib2 2026-05-04 16:06 1.5M
20260504T12Z_MSC_GDPS_AbsoluteVorticity_IsbL-0700_LatLon0.15_PT012H.grib2 2026-05-04 16:06 1.6M
20260504T12Z_MSC_GDPS_AbsoluteVorticity_IsbL-0850_LatLon0.15_PT012H.grib2 2026-05-04 16:06 1.6M
20260504T12Z_MSC_GDPS_AirTemp-Max_AGL-2m_LatLon0.15_PT012H.grib2 2026-05-04 16:06 737K
20260504T12Z_MSC_GDPS_AirTemp-Min_AGL-2m_LatLon0.15_PT012H.grib2 2026-05-04 16:06 791K
20260504T12Z_MSC_GDPS_AirTemp_AGL-120m_LatLon0.15_PT012H.grib2 2026-05-04 16:06 900K
20260504T12Z_MSC_GDPS_AirTemp_AGL-2m_LatLon0.15_PT012H.grib2 2026-05-04 16:06 1.0M
20260504T12Z_MSC_GDPS_AirTemp_AGL-40m_LatLon0.15_PT012H.grib2 2026-05-04 16:06 921K
20260504T12Z_MSC_GDPS_AirTemp_AGL-80m_LatLon0.15_PT012H.grib2 2026-05-04 16:06 909K
20260504T12Z_MSC_GDPS_AirTemp_IsbL-0001_LatLon0.15_PT012H.grib2 2026-05-04 16:06 661K
20260504T12Z_MSC_GDPS_AirTemp_IsbL-0005_LatLon0.15_PT012H.grib2 2026-05-04 16:06 694K
20260504T12Z_MSC_GDPS_AirTemp_IsbL-0010_LatLon0.15_PT012H.grib2 2026-05-04 16:06 702K
20260504T12Z_MSC_GDPS_AirTemp_IsbL-0020_LatLon0.15_PT012H.grib2 2026-05-04 16:06 793K
20260504T12Z_MSC_GDPS_AirTemp_IsbL-0030_LatLon0.15_PT012H.grib2 2026-05-04 16:06 842K
20260504T12Z_MSC_GDPS_AirTemp_IsbL-0050_LatLon0.15_PT012H.grib2 2026-05-04 16:06 815K
20260504T12Z_MSC_GDPS_AirTemp_IsbL-0100_LatLon0.15_PT012H.grib2 2026-05-04 16:06 961K
20260504T12Z_MSC_GDPS_AirTemp_IsbL-0150_LatLon0.15_PT012H.grib2 2026-05-04 16:06 971K
20260504T12Z_MSC_GDPS_AirTemp_IsbL-0175_LatLon0.15_PT012H.grib2 2026-05-04 16:06 962K
20260504T12Z_MSC_GDPS_AirTemp_IsbL-0200_LatLon0.15_PT012H.grib2 2026-05-04 16:06 1.0M
20260504T12Z_MSC_GDPS_AirTemp_IsbL-0225_LatLon0.15_PT012H.grib2 2026-05-04 16:06 1.0M
20260504T12Z_MSC_GDPS_AirTemp_IsbL-0250_LatLon0.15_PT012H.grib2 2026-05-04 16:06 1.0M
20260504T12Z_MSC_GDPS_AirTemp_IsbL-0275_LatLon0.15_PT012H.grib2 2026-05-04 16:06 1.0M
20260504T12Z_MSC_GDPS_AirTemp_IsbL-0300_LatLon0.15_PT012H.grib2 2026-05-04 16:06 1.0M
20260504T12Z_MSC_GDPS_AirTemp_IsbL-0350_LatLon0.15_PT012H.grib2 2026-05-04 16:06 934K
20260504T12Z_MSC_GDPS_AirTemp_IsbL-0400_LatLon0.15_PT012H.grib2 2026-05-04 16:06 945K
20260504T12Z_MSC_GDPS_AirTemp_IsbL-0450_LatLon0.15_PT012H.grib2 2026-05-04 16:06 965K
20260504T12Z_MSC_GDPS_AirTemp_IsbL-0500_LatLon0.15_PT012H.grib2 2026-05-04 16:06 1.0M
20260504T12Z_MSC_GDPS_AirTemp_IsbL-0550_LatLon0.15_PT012H.grib2 2026-05-04 16:06 802K
20260504T12Z_MSC_GDPS_AirTemp_IsbL-0600_LatLon0.15_PT012H.grib2 2026-05-04 16:06 889K
20260504T12Z_MSC_GDPS_AirTemp_IsbL-0650_LatLon0.15_PT012H.grib2 2026-05-04 16:06 914K
20260504T12Z_MSC_GDPS_AirTemp_IsbL-0700_LatLon0.15_PT012H.grib2 2026-05-04 16:06 948K
20260504T12Z_MSC_GDPS_AirTemp_IsbL-0750_LatLon0.15_PT012H.grib2 2026-05-04 16:06 1.0M
20260504T12Z_MSC_GDPS_AirTemp_IsbL-0800_LatLon0.15_PT012H.grib2 2026-05-04 16:06 1.1M
20260504T12Z_MSC_GDPS_AirTemp_IsbL-0850_LatLon0.15_PT012H.grib2 2026-05-04 16:06 1.1M
20260504T12Z_MSC_GDPS_AirTemp_IsbL-0875_LatLon0.15_PT012H.grib2 2026-05-04 16:06 1.1M
20260504T12Z_MSC_GDPS_AirTemp_IsbL-0900_LatLon0.15_PT012H.grib2 2026-05-04 16:06 1.1M
20260504T12Z_MSC_GDPS_AirTemp_IsbL-0925_LatLon0.15_PT012H.grib2 2026-05-04 16:06 1.1M
20260504T12Z_MSC_GDPS_AirTemp_IsbL-0950_LatLon0.15_PT012H.grib2 2026-05-04 16:06 1.1M
20260504T12Z_MSC_GDPS_AirTemp_IsbL-0970_LatLon0.15_PT012H.grib2 2026-05-04 16:06 1.1M
20260504T12Z_MSC_GDPS_AirTemp_IsbL-0985_LatLon0.15_PT012H.grib2 2026-05-04 16:06 1.1M
20260504T12Z_MSC_GDPS_AirTemp_IsbL-1000_LatLon0.15_PT012H.grib2 2026-05-04 16:06 1.1M
20260504T12Z_MSC_GDPS_AirTemp_IsbL-1015_LatLon0.15_PT012H.grib2 2026-05-04 16:06 1.1M
20260504T12Z_MSC_GDPS_Albedo_Sfc_LatLon0.15_PT012H.grib2 2026-05-04 16:06 242K
20260504T12Z_MSC_GDPS_CAPE_Sfc_LatLon0.15_PT012H.grib2 2026-05-04 16:06 3.9M
20260504T12Z_MSC_GDPS_CIN_Sfc_LatLon0.15_PT012H.grib2 2026-05-04 16:06 2.9M
20260504T12Z_MSC_GDPS_CloudWater_EAtm_LatLon0.15_PT012H.grib2 2026-05-04 16:06 525K
20260504T12Z_MSC_GDPS_ConvectivePrecip-Accum_Sfc_LatLon0.15_PT012H.grib2 2026-05-04 16:06 2.0M
20260504T12Z_MSC_GDPS_DewPointDepression_AGL-2m_LatLon0.15_PT012H.grib2 2026-05-04 16:06 765K
20260504T12Z_MSC_GDPS_DewPointDepression_IsbL-0010_LatLon0.15_PT012H.grib2 2026-05-04 16:06 79K
20260504T12Z_MSC_GDPS_DewPointDepression_IsbL-0020_LatLon0.15_PT012H.grib2 2026-05-04 16:06 79K
20260504T12Z_MSC_GDPS_DewPointDepression_IsbL-0030_LatLon0.15_PT012H.grib2 2026-05-04 16:06 87K
20260504T12Z_MSC_GDPS_DewPointDepression_IsbL-0050_LatLon0.15_PT012H.grib2 2026-05-04 16:06 386K
20260504T12Z_MSC_GDPS_DewPointDepression_IsbL-0100_LatLon0.15_PT012H.grib2 2026-05-04 16:06 409K
20260504T12Z_MSC_GDPS_DewPointDepression_IsbL-0150_LatLon0.15_PT012H.grib2 2026-05-04 16:06 478K
20260504T12Z_MSC_GDPS_DewPointDepression_IsbL-0175_LatLon0.15_PT012H.grib2 2026-05-04 16:06 587K
20260504T12Z_MSC_GDPS_DewPointDepression_IsbL-0200_LatLon0.15_PT012H.grib2 2026-05-04 16:06 691K
20260504T12Z_MSC_GDPS_DewPointDepression_IsbL-0225_LatLon0.15_PT012H.grib2 2026-05-04 16:06 789K
20260504T12Z_MSC_GDPS_DewPointDepression_IsbL-0250_LatLon0.15_PT012H.grib2 2026-05-04 16:06 876K
20260504T12Z_MSC_GDPS_DewPointDepression_IsbL-0275_LatLon0.15_PT012H.grib2 2026-05-04 16:06 895K
20260504T12Z_MSC_GDPS_DewPointDepression_IsbL-0300_LatLon0.15_PT012H.grib2 2026-05-04 16:06 934K
20260504T12Z_MSC_GDPS_DewPointDepression_IsbL-0350_LatLon0.15_PT012H.grib2 2026-05-04 16:06 959K
20260504T12Z_MSC_GDPS_DewPointDepression_IsbL-0400_LatLon0.15_PT012H.grib2 2026-05-04 16:06 1.0M
20260504T12Z_MSC_GDPS_DewPointDepression_IsbL-0450_LatLon0.15_PT012H.grib2 2026-05-04 16:06 1.0M
20260504T12Z_MSC_GDPS_DewPointDepression_IsbL-0500_LatLon0.15_PT012H.grib2 2026-05-04 16:06 1.0M
20260504T12Z_MSC_GDPS_DewPointDepression_IsbL-0550_LatLon0.15_PT012H.grib2 2026-05-04 16:06 1.0M
20260504T12Z_MSC_GDPS_DewPointDepression_IsbL-0600_LatLon0.15_PT012H.grib2 2026-05-04 16:06 1.0M
20260504T12Z_MSC_GDPS_DewPointDepression_IsbL-0650_LatLon0.15_PT012H.grib2 2026-05-04 16:06 1.0M
20260504T12Z_MSC_GDPS_DewPointDepression_IsbL-0700_LatLon0.15_PT012H.grib2 2026-05-04 16:06 1.1M
20260504T12Z_MSC_GDPS_DewPointDepression_IsbL-0750_LatLon0.15_PT012H.grib2 2026-05-04 16:06 1.1M
20260504T12Z_MSC_GDPS_DewPointDepression_IsbL-0800_LatLon0.15_PT012H.grib2 2026-05-04 16:06 1.1M
20260504T12Z_MSC_GDPS_DewPointDepression_IsbL-0850_LatLon0.15_PT012H.grib2 2026-05-04 16:06 1.1M
20260504T12Z_MSC_GDPS_DewPointDepression_IsbL-0875_LatLon0.15_PT012H.grib2 2026-05-04 16:06 1.1M
20260504T12Z_MSC_GDPS_DewPointDepression_IsbL-0900_LatLon0.15_PT012H.grib2 2026-05-04 16:06 1.0M
20260504T12Z_MSC_GDPS_DewPointDepression_IsbL-0925_LatLon0.15_PT012H.grib2 2026-05-04 16:06 1.0M
20260504T12Z_MSC_GDPS_DewPointDepression_IsbL-0950_LatLon0.15_PT012H.grib2 2026-05-04 16:06 1.0M
20260504T12Z_MSC_GDPS_DewPointDepression_IsbL-0970_LatLon0.15_PT012H.grib2 2026-05-04 16:06 1.0M
20260504T12Z_MSC_GDPS_DewPointDepression_IsbL-0985_LatLon0.15_PT012H.grib2 2026-05-04 16:06 1.0M
20260504T12Z_MSC_GDPS_DewPointDepression_IsbL-1000_LatLon0.15_PT012H.grib2 2026-05-04 16:06 972K
20260504T12Z_MSC_GDPS_DewPointDepression_IsbL-1015_LatLon0.15_PT012H.grib2 2026-05-04 16:06 915K
20260504T12Z_MSC_GDPS_DewPoint_AGL-2m_LatLon0.15_PT012H.grib2 2026-05-04 16:06 596K
20260504T12Z_MSC_GDPS_DownwardLongwaveRadiationFlux-Accum_Sfc_LatLon0.15_PT012H.grib2 2026-05-04 16:06 1.0M
20260504T12Z_MSC_GDPS_DownwardShortwaveRadiationFlux-Accum_NTAtm_LatLon0.15_PT012H.grib2 2026-05-04 16:06 340K
20260504T12Z_MSC_GDPS_DownwardShortwaveRadiationFlux-Accum_Sfc_LatLon0.15_PT012H.grib2 2026-05-04 16:06 892K
20260504T12Z_MSC_GDPS_FreezingRain-Accum12h_Sfc_LatLon0.15_PT012H.grib2 2026-05-04 16:06 85K
20260504T12Z_MSC_GDPS_FreezingRain-Accum1h_Sfc_LatLon0.15_PT012H.grib2 2026-05-04 16:06 28K
20260504T12Z_MSC_GDPS_FreezingRain-Accum3h_Sfc_LatLon0.15_PT012H.grib2 2026-05-04 16:06 35K
20260504T12Z_MSC_GDPS_FreezingRain-Accum6h_Sfc_LatLon0.15_PT012H.grib2 2026-05-04 16:06 54K
20260504T12Z_MSC_GDPS_FreezingRain-Accum_Sfc_LatLon0.15_PT012H.grib2 2026-05-04 16:06 108K
20260504T12Z_MSC_GDPS_GeopotentialHeight_IsbL-0001_LatLon0.15_PT012H.grib2 2026-05-04 16:06 434K
20260504T12Z_MSC_GDPS_GeopotentialHeight_IsbL-0005_LatLon0.15_PT012H.grib2 2026-05-04 16:06 494K
20260504T12Z_MSC_GDPS_GeopotentialHeight_IsbL-0010_LatLon0.15_PT012H.grib2 2026-05-04 16:06 483K
20260504T12Z_MSC_GDPS_GeopotentialHeight_IsbL-0020_LatLon0.15_PT012H.grib2 2026-05-04 16:06 414K
20260504T12Z_MSC_GDPS_GeopotentialHeight_IsbL-0030_LatLon0.15_PT012H.grib2 2026-05-04 16:06 569K
20260504T12Z_MSC_GDPS_GeopotentialHeight_IsbL-0050_LatLon0.15_PT012H.grib2 2026-05-04 16:06 571K
20260504T12Z_MSC_GDPS_GeopotentialHeight_IsbL-0100_LatLon0.15_PT012H.grib2 2026-05-04 16:06 608K
20260504T12Z_MSC_GDPS_GeopotentialHeight_IsbL-0150_LatLon0.15_PT012H.grib2 2026-05-04 16:06 623K
20260504T12Z_MSC_GDPS_GeopotentialHeight_IsbL-0175_LatLon0.15_PT012H.grib2 2026-05-04 16:06 627K
20260504T12Z_MSC_GDPS_GeopotentialHeight_IsbL-0200_LatLon0.15_PT012H.grib2 2026-05-04 16:06 633K
20260504T12Z_MSC_GDPS_GeopotentialHeight_IsbL-0225_LatLon0.15_PT012H.grib2 2026-05-04 16:06 638K
20260504T12Z_MSC_GDPS_GeopotentialHeight_IsbL-0250_LatLon0.15_PT012H.grib2 2026-05-04 16:06 640K
20260504T12Z_MSC_GDPS_GeopotentialHeight_IsbL-0275_LatLon0.15_PT012H.grib2 2026-05-04 16:06 642K
20260504T12Z_MSC_GDPS_GeopotentialHeight_IsbL-0300_LatLon0.15_PT012H.grib2 2026-05-04 16:06 642K
20260504T12Z_MSC_GDPS_GeopotentialHeight_IsbL-0350_LatLon0.15_PT012H.grib2 2026-05-04 16:06 629K
20260504T12Z_MSC_GDPS_GeopotentialHeight_IsbL-0400_LatLon0.15_PT012H.grib2 2026-05-04 16:06 622K
20260504T12Z_MSC_GDPS_GeopotentialHeight_IsbL-0450_LatLon0.15_PT012H.grib2 2026-05-04 16:06 613K
20260504T12Z_MSC_GDPS_GeopotentialHeight_IsbL-0500_LatLon0.15_PT012H.grib2 2026-05-04 16:06 605K
20260504T12Z_MSC_GDPS_GeopotentialHeight_IsbL-0550_LatLon0.15_PT012H.grib2 2026-05-04 16:06 529K
20260504T12Z_MSC_GDPS_GeopotentialHeight_IsbL-0600_LatLon0.15_PT012H.grib2 2026-05-04 16:06 524K
20260504T12Z_MSC_GDPS_GeopotentialHeight_IsbL-0650_LatLon0.15_PT012H.grib2 2026-05-04 16:06 689K
20260504T12Z_MSC_GDPS_GeopotentialHeight_IsbL-0700_LatLon0.15_PT012H.grib2 2026-05-04 16:06 684K
20260504T12Z_MSC_GDPS_GeopotentialHeight_IsbL-0750_LatLon0.15_PT012H.grib2 2026-05-04 16:06 693K
20260504T12Z_MSC_GDPS_GeopotentialHeight_IsbL-0800_LatLon0.15_PT012H.grib2 2026-05-04 16:06 697K
20260504T12Z_MSC_GDPS_GeopotentialHeight_IsbL-0850_LatLon0.15_PT012H.grib2 2026-05-04 16:06 705K
20260504T12Z_MSC_GDPS_GeopotentialHeight_IsbL-0875_LatLon0.15_PT012H.grib2 2026-05-04 16:06 711K
20260504T12Z_MSC_GDPS_GeopotentialHeight_IsbL-0900_LatLon0.15_PT012H.grib2 2026-05-04 16:06 723K
20260504T12Z_MSC_GDPS_GeopotentialHeight_IsbL-0925_LatLon0.15_PT012H.grib2 2026-05-04 16:06 726K
20260504T12Z_MSC_GDPS_GeopotentialHeight_IsbL-0950_LatLon0.15_PT012H.grib2 2026-05-04 16:06 736K
20260504T12Z_MSC_GDPS_GeopotentialHeight_IsbL-0970_LatLon0.15_PT012H.grib2 2026-05-04 16:06 746K
20260504T12Z_MSC_GDPS_GeopotentialHeight_IsbL-0985_LatLon0.15_PT012H.grib2 2026-05-04 16:06 760K
20260504T12Z_MSC_GDPS_GeopotentialHeight_IsbL-1000_LatLon0.15_PT012H.grib2 2026-05-04 16:06 781K
20260504T12Z_MSC_GDPS_GeopotentialHeight_IsbL-1015_LatLon0.15_PT012H.grib2 2026-05-04 16:06 798K
20260504T12Z_MSC_GDPS_Humidex_Sfc_LatLon0.15_PT012H.grib2 2026-05-04 16:06 5.3M
20260504T12Z_MSC_GDPS_IcePellets-Accum12h_Sfc_LatLon0.15_PT012H.grib2 2026-05-04 16:06 28K
20260504T12Z_MSC_GDPS_IcePellets-Accum1h_Sfc_LatLon0.15_PT012H.grib2 2026-05-04 16:06 12K
20260504T12Z_MSC_GDPS_IcePellets-Accum3h_Sfc_LatLon0.15_PT012H.grib2 2026-05-04 16:06 17K
20260504T12Z_MSC_GDPS_IcePellets-Accum6h_Sfc_LatLon0.15_PT012H.grib2 2026-05-04 16:06 21K
20260504T12Z_MSC_GDPS_IcePellets-Accum_Sfc_LatLon0.15_PT012H.grib2 2026-05-04 16:06 30K
20260504T12Z_MSC_GDPS_KIndex_Sfc_LatLon0.15_PT012H.grib2 2026-05-04 16:06 6.4M
20260504T12Z_MSC_GDPS_LatentHeatNetFlux_Sfc_LatLon0.15_PT012H.grib2 2026-05-04 16:06 669K
20260504T12Z_MSC_GDPS_LiftedIndex-MU-VT_IsbL-0500_LatLon0.15_PT012H.grib2 2026-05-04 16:06 5.4M
20260504T12Z_MSC_GDPS_NetLongwaveRadiationFlux-Accum_Sfc_LatLon0.15_PT012H.grib2 2026-05-04 16:06 1.3M
20260504T12Z_MSC_GDPS_NetShortwaveRadiationFlux-Accum_Sfc_LatLon0.15_PT012H.grib2 2026-05-04 16:06 849K
20260504T12Z_MSC_GDPS_O3MixingRatio_Sfc_LatLon0.15_PT012H.grib2 2026-05-04 17:16 2.1M
20260504T12Z_MSC_GDPS_O3_EAtm_LatLon0.15_PT012H.grib2 2026-05-04 17:16 2.5M
20260504T12Z_MSC_GDPS_PlanetaryBoundaryLayerHeight_Sfc_LatLon0.15_PT012H.grib2 2026-05-04 16:06 2.4M
20260504T12Z_MSC_GDPS_Precip-Accum12h_Sfc_LatLon0.15_PT012H.grib2 2026-05-04 16:06 4.3M
20260504T12Z_MSC_GDPS_Precip-Accum1h_Sfc_LatLon0.15_PT012H.grib2 2026-05-04 16:06 3.1M
20260504T12Z_MSC_GDPS_Precip-Accum3h_Sfc_LatLon0.15_PT012H.grib2 2026-05-04 16:06 3.4M
20260504T12Z_MSC_GDPS_Precip-Accum6h_Sfc_LatLon0.15_PT012H.grib2 2026-05-04 16:06 3.7M
20260504T12Z_MSC_GDPS_Precip-Accum_Sfc_LatLon0.15_PT012H.grib2 2026-05-04 16:06 4.1M
20260504T12Z_MSC_GDPS_PrecipRate_Sfc_LatLon0.15_PT012H.grib2 2026-05-04 16:06 3.0M
20260504T12Z_MSC_GDPS_PrecipType-Instant_Sfc_LatLon0.15_PT012H.grib2 2026-05-04 16:06 1.5M
20260504T12Z_MSC_GDPS_Pressure_MSL_LatLon0.15_PT012H.grib2 2026-05-04 16:06 829K
20260504T12Z_MSC_GDPS_Pressure_PVU-1.5_LatLon0.15_PT012H.grib2 2026-05-04 16:06 5.8M
20260504T12Z_MSC_GDPS_Pressure_PVU-1_LatLon0.15_PT012H.grib2 2026-05-04 16:06 6.0M
20260504T12Z_MSC_GDPS_Pressure_PVU-2_LatLon0.15_PT012H.grib2 2026-05-04 16:06 5.6M
20260504T12Z_MSC_GDPS_Pressure_Sfc_LatLon0.15_PT012H.grib2 2026-05-04 16:06 1.1M
20260504T12Z_MSC_GDPS_RadiativeTemp_Sfc_LatLon0.15_PT012H.grib2 2026-05-04 16:06 647K
20260504T12Z_MSC_GDPS_Rain-Accum12h_Sfc_LatLon0.15_PT012H.grib2 2026-05-04 16:06 2.9M
20260504T12Z_MSC_GDPS_Rain-Accum1h_Sfc_LatLon0.15_PT012H.grib2 2026-05-04 16:06 1.6M
20260504T12Z_MSC_GDPS_Rain-Accum3h_Sfc_LatLon0.15_PT012H.grib2 2026-05-04 16:06 1.8M
20260504T12Z_MSC_GDPS_Rain-Accum6h_Sfc_LatLon0.15_PT012H.grib2 2026-05-04 16:06 2.4M
20260504T12Z_MSC_GDPS_Rain-Accum_Sfc_LatLon0.15_PT012H.grib2 2026-05-04 16:06 2.9M
20260504T12Z_MSC_GDPS_RelativeHumidity_AGL-2m_LatLon0.15_PT012H.grib2 2026-05-04 16:06 1.0M
20260504T12Z_MSC_GDPS_RelativeHumidity_IsbL-0010_LatLon0.15_PT012H.grib2 2026-05-04 16:06 218K
20260504T12Z_MSC_GDPS_RelativeHumidity_IsbL-0020_LatLon0.15_PT012H.grib2 2026-05-04 16:06 182K
20260504T12Z_MSC_GDPS_RelativeHumidity_IsbL-0030_LatLon0.15_PT012H.grib2 2026-05-04 16:06 278K
20260504T12Z_MSC_GDPS_RelativeHumidity_IsbL-0050_LatLon0.15_PT012H.grib2 2026-05-04 16:06 430K
20260504T12Z_MSC_GDPS_RelativeHumidity_IsbL-0100_LatLon0.15_PT012H.grib2 2026-05-04 16:06 516K
20260504T12Z_MSC_GDPS_RelativeHumidity_IsbL-0150_LatLon0.15_PT012H.grib2 2026-05-04 16:06 665K
20260504T12Z_MSC_GDPS_RelativeHumidity_IsbL-0175_LatLon0.15_PT012H.grib2 2026-05-04 16:06 791K
20260504T12Z_MSC_GDPS_RelativeHumidity_IsbL-0200_LatLon0.15_PT012H.grib2 2026-05-04 16:06 704K
20260504T12Z_MSC_GDPS_RelativeHumidity_IsbL-0225_LatLon0.15_PT012H.grib2 2026-05-04 16:06 787K
20260504T12Z_MSC_GDPS_RelativeHumidity_IsbL-0250_LatLon0.15_PT012H.grib2 2026-05-04 16:06 866K
20260504T12Z_MSC_GDPS_RelativeHumidity_IsbL-0275_LatLon0.15_PT012H.grib2 2026-05-04 16:06 889K
20260504T12Z_MSC_GDPS_RelativeHumidity_IsbL-0300_LatLon0.15_PT012H.grib2 2026-05-04 16:06 931K
20260504T12Z_MSC_GDPS_RelativeHumidity_IsbL-0350_LatLon0.15_PT012H.grib2 2026-05-04 16:06 953K
20260504T12Z_MSC_GDPS_RelativeHumidity_IsbL-0400_LatLon0.15_PT012H.grib2 2026-05-04 16:06 1.0M
20260504T12Z_MSC_GDPS_RelativeHumidity_IsbL-0450_LatLon0.15_PT012H.grib2 2026-05-04 16:06 1.0M
20260504T12Z_MSC_GDPS_RelativeHumidity_IsbL-0500_LatLon0.15_PT012H.grib2 2026-05-04 16:06 1.0M
20260504T12Z_MSC_GDPS_RelativeHumidity_IsbL-0550_LatLon0.15_PT012H.grib2 2026-05-04 16:06 1.1M
20260504T12Z_MSC_GDPS_RelativeHumidity_IsbL-0600_LatLon0.15_PT012H.grib2 2026-05-04 16:06 1.1M
20260504T12Z_MSC_GDPS_RelativeHumidity_IsbL-0650_LatLon0.15_PT012H.grib2 2026-05-04 16:06 1.1M
20260504T12Z_MSC_GDPS_RelativeHumidity_IsbL-0700_LatLon0.15_PT012H.grib2 2026-05-04 16:06 1.1M
20260504T12Z_MSC_GDPS_RelativeHumidity_IsbL-0750_LatLon0.15_PT012H.grib2 2026-05-04 16:06 1.2M
20260504T12Z_MSC_GDPS_RelativeHumidity_IsbL-0800_LatLon0.15_PT012H.grib2 2026-05-04 16:06 1.2M
20260504T12Z_MSC_GDPS_RelativeHumidity_IsbL-0850_LatLon0.15_PT012H.grib2 2026-05-04 16:06 1.3M
20260504T12Z_MSC_GDPS_RelativeHumidity_IsbL-0875_LatLon0.15_PT012H.grib2 2026-05-04 16:06 1.3M
20260504T12Z_MSC_GDPS_RelativeHumidity_IsbL-0900_LatLon0.15_PT012H.grib2 2026-05-04 16:06 1.3M
20260504T12Z_MSC_GDPS_RelativeHumidity_IsbL-0925_LatLon0.15_PT012H.grib2 2026-05-04 16:06 1.2M
20260504T12Z_MSC_GDPS_RelativeHumidity_IsbL-0950_LatLon0.15_PT012H.grib2 2026-05-04 16:06 1.2M
20260504T12Z_MSC_GDPS_RelativeHumidity_IsbL-0970_LatLon0.15_PT012H.grib2 2026-05-04 16:06 1.2M
20260504T12Z_MSC_GDPS_RelativeHumidity_IsbL-0985_LatLon0.15_PT012H.grib2 2026-05-04 16:06 1.1M
20260504T12Z_MSC_GDPS_RelativeHumidity_IsbL-1000_LatLon0.15_PT012H.grib2 2026-05-04 16:06 1.1M
20260504T12Z_MSC_GDPS_RelativeHumidity_IsbL-1015_LatLon0.15_PT012H.grib2 2026-05-04 16:06 1.0M
20260504T12Z_MSC_GDPS_RelativeVorticity_IsbL-0200_LatLon0.15_PT012H.grib2 2026-05-04 16:06 1.5M
20260504T12Z_MSC_GDPS_RelativeVorticity_IsbL-0250_LatLon0.15_PT012H.grib2 2026-05-04 16:06 1.3M
20260504T12Z_MSC_GDPS_RelativeVorticity_IsbL-0500_LatLon0.15_PT012H.grib2 2026-05-04 16:06 1.5M
20260504T12Z_MSC_GDPS_RelativeVorticity_IsbL-0700_LatLon0.15_PT012H.grib2 2026-05-04 16:06 1.6M
20260504T12Z_MSC_GDPS_RelativeVorticity_IsbL-0850_LatLon0.15_PT012H.grib2 2026-05-04 16:06 1.6M
20260504T12Z_MSC_GDPS_Runoff-Accum_Sfc_LatLon0.15_PT012H.grib2 2026-05-04 16:06 80K
20260504T12Z_MSC_GDPS_SensibleHeatNetFlux_Sfc_LatLon0.15_PT012H.grib2 2026-05-04 16:06 616K
20260504T12Z_MSC_GDPS_ShowalterIndex_IsbL-0500_LatLon0.15_PT012H.grib2 2026-05-04 16:06 6.2M
20260504T12Z_MSC_GDPS_Snow-Accum12h_Sfc_LatLon0.15_PT012H.grib2 2026-05-04 16:06 1.5M
20260504T12Z_MSC_GDPS_Snow-Accum1h_Sfc_LatLon0.15_PT012H.grib2 2026-05-04 16:06 1.0M
20260504T12Z_MSC_GDPS_Snow-Accum3h_Sfc_LatLon0.15_PT012H.grib2 2026-05-04 16:06 1.0M
20260504T12Z_MSC_GDPS_Snow-Accum6h_Sfc_LatLon0.15_PT012H.grib2 2026-05-04 16:06 1.4M
20260504T12Z_MSC_GDPS_Snow-Accum_Sfc_LatLon0.15_PT012H.grib2 2026-05-04 16:06 1.7M
20260504T12Z_MSC_GDPS_SnowDensity_Sfc_LatLon0.15_PT012H.grib2 2026-05-04 16:06 248K
20260504T12Z_MSC_GDPS_SnowDepth_Sfc_LatLon0.15_PT012H.grib2 2026-05-04 16:06 1.7M
20260504T12Z_MSC_GDPS_SoilTemp_DBS-0to10cm_LatLon0.15_PT012H.grib2 2026-05-04 16:06 497K
20260504T12Z_MSC_GDPS_SoilTemp_Sfc_LatLon0.15_PT012H.grib2 2026-05-04 16:06 570K
20260504T12Z_MSC_GDPS_SoilVolumetricIceContent_Sfc_LatLon0.15_PT012H.grib2 2026-05-04 16:06 193K
20260504T12Z_MSC_GDPS_SoilVolumetricWaterContent_DBS-0to10cm_LatLon0.15_PT012H.grib2 2026-05-04 16:06 590K
20260504T12Z_MSC_GDPS_SoilVolumetricWaterContent_DBS-0to1cm_LatLon0.15_PT012H.grib2 2026-05-04 16:06 650K
20260504T12Z_MSC_GDPS_SpecificHumidity_AGL-120m_LatLon0.15_PT012H.grib2 2026-05-04 16:06 1.1M
20260504T12Z_MSC_GDPS_SpecificHumidity_AGL-2m_LatLon0.15_PT012H.grib2 2026-05-04 16:06 1.2M
20260504T12Z_MSC_GDPS_SpecificHumidity_AGL-40m_LatLon0.15_PT012H.grib2 2026-05-04 16:06 1.1M
20260504T12Z_MSC_GDPS_SpecificHumidity_AGL-80m_LatLon0.15_PT012H.grib2 2026-05-04 16:06 1.1M
20260504T12Z_MSC_GDPS_SpecificHumidity_IsbL-0001_LatLon0.15_PT012H.grib2 2026-05-04 16:06 1.1M
20260504T12Z_MSC_GDPS_SpecificHumidity_IsbL-0005_LatLon0.15_PT012H.grib2 2026-05-04 16:06 1.3M
20260504T12Z_MSC_GDPS_SpecificHumidity_IsbL-0010_LatLon0.15_PT012H.grib2 2026-05-04 16:06 1.4M
20260504T12Z_MSC_GDPS_SpecificHumidity_IsbL-0020_LatLon0.15_PT012H.grib2 2026-05-04 16:06 1.4M
20260504T12Z_MSC_GDPS_SpecificHumidity_IsbL-0030_LatLon0.15_PT012H.grib2 2026-05-04 16:06 1.4M
20260504T12Z_MSC_GDPS_SpecificHumidity_IsbL-0050_LatLon0.15_PT012H.grib2 2026-05-04 16:06 1.4M
20260504T12Z_MSC_GDPS_SpecificHumidity_IsbL-0100_LatLon0.15_PT012H.grib2 2026-05-04 16:06 1.4M
20260504T12Z_MSC_GDPS_SpecificHumidity_IsbL-0150_LatLon0.15_PT012H.grib2 2026-05-04 16:06 1.3M
20260504T12Z_MSC_GDPS_SpecificHumidity_IsbL-0175_LatLon0.15_PT012H.grib2 2026-05-04 16:06 1.3M
20260504T12Z_MSC_GDPS_SpecificHumidity_IsbL-0200_LatLon0.15_PT012H.grib2 2026-05-04 16:06 1.3M
20260504T12Z_MSC_GDPS_SpecificHumidity_IsbL-0225_LatLon0.15_PT012H.grib2 2026-05-04 16:06 1.3M
20260504T12Z_MSC_GDPS_SpecificHumidity_IsbL-0250_LatLon0.15_PT012H.grib2 2026-05-04 16:06 1.4M
20260504T12Z_MSC_GDPS_SpecificHumidity_IsbL-0275_LatLon0.15_PT012H.grib2 2026-05-04 16:06 1.3M
20260504T12Z_MSC_GDPS_SpecificHumidity_IsbL-0300_LatLon0.15_PT012H.grib2 2026-05-04 16:06 1.2M
20260504T12Z_MSC_GDPS_SpecificHumidity_IsbL-0350_LatLon0.15_PT012H.grib2 2026-05-04 16:06 1.2M
20260504T12Z_MSC_GDPS_SpecificHumidity_IsbL-0400_LatLon0.15_PT012H.grib2 2026-05-04 16:06 1.5M
20260504T12Z_MSC_GDPS_SpecificHumidity_IsbL-0450_LatLon0.15_PT012H.grib2 2026-05-04 16:06 1.6M
20260504T12Z_MSC_GDPS_SpecificHumidity_IsbL-0500_LatLon0.15_PT012H.grib2 2026-05-04 16:06 1.4M
20260504T12Z_MSC_GDPS_SpecificHumidity_IsbL-0550_LatLon0.15_PT012H.grib2 2026-05-04 16:06 1.6M
20260504T12Z_MSC_GDPS_SpecificHumidity_IsbL-0600_LatLon0.15_PT012H.grib2 2026-05-04 16:06 1.7M
20260504T12Z_MSC_GDPS_SpecificHumidity_IsbL-0650_LatLon0.15_PT012H.grib2 2026-05-04 16:06 1.5M
20260504T12Z_MSC_GDPS_SpecificHumidity_IsbL-0700_LatLon0.15_PT012H.grib2 2026-05-04 16:06 1.6M
20260504T12Z_MSC_GDPS_SpecificHumidity_IsbL-0750_LatLon0.15_PT012H.grib2 2026-05-04 16:06 1.7M
20260504T12Z_MSC_GDPS_SpecificHumidity_IsbL-0800_LatLon0.15_PT012H.grib2 2026-05-04 16:06 1.8M
20260504T12Z_MSC_GDPS_SpecificHumidity_IsbL-0850_LatLon0.15_PT012H.grib2 2026-05-04 16:06 1.9M
20260504T12Z_MSC_GDPS_SpecificHumidity_IsbL-0875_LatLon0.15_PT012H.grib2 2026-05-04 16:06 1.9M
20260504T12Z_MSC_GDPS_SpecificHumidity_IsbL-0900_LatLon0.15_PT012H.grib2 2026-05-04 16:06 1.9M
20260504T12Z_MSC_GDPS_SpecificHumidity_IsbL-0925_LatLon0.15_PT012H.grib2 2026-05-04 16:06 1.6M
20260504T12Z_MSC_GDPS_SpecificHumidity_IsbL-0950_LatLon0.15_PT012H.grib2 2026-05-04 16:06 1.5M
20260504T12Z_MSC_GDPS_SpecificHumidity_IsbL-0970_LatLon0.15_PT012H.grib2 2026-05-04 16:06 1.5M
20260504T12Z_MSC_GDPS_SpecificHumidity_IsbL-0985_LatLon0.15_PT012H.grib2 2026-05-04 16:06 1.5M
20260504T12Z_MSC_GDPS_SpecificHumidity_IsbL-1000_LatLon0.15_PT012H.grib2 2026-05-04 16:06 1.5M
20260504T12Z_MSC_GDPS_SpecificHumidity_IsbL-1015_LatLon0.15_PT012H.grib2 2026-05-04 16:06 1.4M
20260504T12Z_MSC_GDPS_SpecificHumidity_Sfc_LatLon0.15_PT012H.grib2 2026-05-04 16:06 626K
20260504T12Z_MSC_GDPS_Thickness_IsbL-0850to0700_LatLon0.15_PT012H.grib2 2026-05-04 16:06 468K
20260504T12Z_MSC_GDPS_Thickness_IsbL-1000to0500_LatLon0.15_PT012H.grib2 2026-05-04 16:06 371K
20260504T12Z_MSC_GDPS_Thickness_IsbL-1000to0850_LatLon0.15_PT012H.grib2 2026-05-04 16:06 484K
20260504T12Z_MSC_GDPS_TotalCloudCover_Sfc_LatLon0.15_PT012H.grib2 2026-05-04 16:06 825K
20260504T12Z_MSC_GDPS_TotalTotalsIndex_Sfc_LatLon0.15_PT012H.grib2 2026-05-04 16:06 6.2M
20260504T12Z_MSC_GDPS_UVIndex-ClearSky_Sfc_LatLon0.15_PT012H.grib2 2026-05-04 17:16 1.0M
20260504T12Z_MSC_GDPS_UVIndex_Sfc_LatLon0.15_PT012H.grib2 2026-05-04 17:16 1.5M
20260504T12Z_MSC_GDPS_UpwardLongwaveRadiationFlux_NTAtm_LatLon0.15_PT012H.grib2 2026-05-04 16:06 1.1M
20260504T12Z_MSC_GDPS_VerticalVelocity_IsbL-0200_LatLon0.15_PT012H.grib2 2026-05-04 16:06 935K
20260504T12Z_MSC_GDPS_VerticalVelocity_IsbL-0250_LatLon0.15_PT012H.grib2 2026-05-04 16:06 1.1M
20260504T12Z_MSC_GDPS_VerticalVelocity_IsbL-0500_LatLon0.15_PT012H.grib2 2026-05-04 16:06 1.0M
20260504T12Z_MSC_GDPS_VerticalVelocity_IsbL-0600_LatLon0.15_PT012H.grib2 2026-05-04 16:06 1.3M
20260504T12Z_MSC_GDPS_VerticalVelocity_IsbL-0700_LatLon0.15_PT012H.grib2 2026-05-04 16:06 1.4M
20260504T12Z_MSC_GDPS_VerticalVelocity_IsbL-0850_LatLon0.15_PT012H.grib2 2026-05-04 16:06 1.3M
20260504T12Z_MSC_GDPS_WindChill_Sfc_LatLon0.15_PT012H.grib2 2026-05-04 16:06 5.3M
20260504T12Z_MSC_GDPS_WindDir_AGL-10m_LatLon0.15_PT012H.grib2 2026-05-04 16:06 1.3M
20260504T12Z_MSC_GDPS_WindDir_AGL-120m_LatLon0.15_PT012H.grib2 2026-05-04 16:06 1.3M
20260504T12Z_MSC_GDPS_WindDir_AGL-40m_LatLon0.15_PT012H.grib2 2026-05-04 16:06 1.4M
20260504T12Z_MSC_GDPS_WindDir_AGL-80m_LatLon0.15_PT012H.grib2 2026-05-04 16:06 1.3M
20260504T12Z_MSC_GDPS_WindDir_IsbL-0001_LatLon0.15_PT012H.grib2 2026-05-04 16:06 668K
20260504T12Z_MSC_GDPS_WindDir_IsbL-0005_LatLon0.15_PT012H.grib2 2026-05-04 16:06 821K
20260504T12Z_MSC_GDPS_WindDir_IsbL-0010_LatLon0.15_PT012H.grib2 2026-05-04 16:06 852K
20260504T12Z_MSC_GDPS_WindDir_IsbL-0020_LatLon0.15_PT012H.grib2 2026-05-04 16:06 958K
20260504T12Z_MSC_GDPS_WindDir_IsbL-0030_LatLon0.15_PT012H.grib2 2026-05-04 16:06 954K
20260504T12Z_MSC_GDPS_WindDir_IsbL-0050_LatLon0.15_PT012H.grib2 2026-05-04 16:06 958K
20260504T12Z_MSC_GDPS_WindDir_IsbL-0100_LatLon0.15_PT012H.grib2 2026-05-04 16:06 1.0M
20260504T12Z_MSC_GDPS_WindDir_IsbL-0150_LatLon0.15_PT012H.grib2 2026-05-04 16:06 1.0M
20260504T12Z_MSC_GDPS_WindDir_IsbL-0175_LatLon0.15_PT012H.grib2 2026-05-04 16:06 1.1M
20260504T12Z_MSC_GDPS_WindDir_IsbL-0200_LatLon0.15_PT012H.grib2 2026-05-04 16:06 1.1M
20260504T12Z_MSC_GDPS_WindDir_IsbL-0225_LatLon0.15_PT012H.grib2 2026-05-04 16:06 1.1M
20260504T12Z_MSC_GDPS_WindDir_IsbL-0250_LatLon0.15_PT012H.grib2 2026-05-04 16:06 1.1M
20260504T12Z_MSC_GDPS_WindDir_IsbL-0275_LatLon0.15_PT012H.grib2 2026-05-04 16:06 1.2M
20260504T12Z_MSC_GDPS_WindDir_IsbL-0300_LatLon0.15_PT012H.grib2 2026-05-04 16:06 1.2M
20260504T12Z_MSC_GDPS_WindDir_IsbL-0350_LatLon0.15_PT012H.grib2 2026-05-04 16:06 1.2M
20260504T12Z_MSC_GDPS_WindDir_IsbL-0400_LatLon0.15_PT012H.grib2 2026-05-04 16:06 1.3M
20260504T12Z_MSC_GDPS_WindDir_IsbL-0450_LatLon0.15_PT012H.grib2 2026-05-04 16:06 1.3M
20260504T12Z_MSC_GDPS_WindDir_IsbL-0500_LatLon0.15_PT012H.grib2 2026-05-04 16:06 1.3M
20260504T12Z_MSC_GDPS_WindDir_IsbL-0550_LatLon0.15_PT012H.grib2 2026-05-04 16:06 1.4M
20260504T12Z_MSC_GDPS_WindDir_IsbL-0600_LatLon0.15_PT012H.grib2 2026-05-04 16:06 1.4M
20260504T12Z_MSC_GDPS_WindDir_IsbL-0650_LatLon0.15_PT012H.grib2 2026-05-04 16:06 1.5M
20260504T12Z_MSC_GDPS_WindDir_IsbL-0700_LatLon0.15_PT012H.grib2 2026-05-04 16:06 1.6M
20260504T12Z_MSC_GDPS_WindDir_IsbL-0750_LatLon0.15_PT012H.grib2 2026-05-04 16:06 1.7M
20260504T12Z_MSC_GDPS_WindDir_IsbL-0800_LatLon0.15_PT012H.grib2 2026-05-04 16:06 1.8M
20260504T12Z_MSC_GDPS_WindDir_IsbL-0850_LatLon0.15_PT012H.grib2 2026-05-04 16:06 1.9M
20260504T12Z_MSC_GDPS_WindDir_IsbL-0875_LatLon0.15_PT012H.grib2 2026-05-04 16:06 1.9M
20260504T12Z_MSC_GDPS_WindDir_IsbL-0900_LatLon0.15_PT012H.grib2 2026-05-04 16:06 1.9M
20260504T12Z_MSC_GDPS_WindDir_IsbL-0925_LatLon0.15_PT012H.grib2 2026-05-04 16:06 1.9M
20260504T12Z_MSC_GDPS_WindDir_IsbL-0950_LatLon0.15_PT012H.grib2 2026-05-04 16:06 1.9M
20260504T12Z_MSC_GDPS_WindDir_IsbL-0970_LatLon0.15_PT012H.grib2 2026-05-04 16:06 2.0M
20260504T12Z_MSC_GDPS_WindDir_IsbL-0985_LatLon0.15_PT012H.grib2 2026-05-04 16:06 2.0M
20260504T12Z_MSC_GDPS_WindDir_IsbL-1000_LatLon0.15_PT012H.grib2 2026-05-04 16:06 2.0M
20260504T12Z_MSC_GDPS_WindDir_IsbL-1015_LatLon0.15_PT012H.grib2 2026-05-04 16:06 2.0M
20260504T12Z_MSC_GDPS_WindGust-Max_AGL-10m_LatLon0.15_PT012H.grib2 2026-05-04 16:06 2.2M
20260504T12Z_MSC_GDPS_WindGust-Min_AGL-10m_LatLon0.15_PT012H.grib2 2026-05-04 16:06 2.1M
20260504T12Z_MSC_GDPS_WindGust_AGL-10m_LatLon0.15_PT012H.grib2 2026-05-04 16:06 2.1M
20260504T12Z_MSC_GDPS_WindSpeed_AGL-10m_LatLon0.15_PT012H.grib2 2026-05-04 16:06 1.1M
20260504T12Z_MSC_GDPS_WindSpeed_AGL-120m_LatLon0.15_PT012H.grib2 2026-05-04 16:06 1.2M
20260504T12Z_MSC_GDPS_WindSpeed_AGL-40m_LatLon0.15_PT012H.grib2 2026-05-04 16:06 1.2M
20260504T12Z_MSC_GDPS_WindSpeed_AGL-80m_LatLon0.15_PT012H.grib2 2026-05-04 16:06 1.2M
20260504T12Z_MSC_GDPS_WindSpeed_IsbL-0001_LatLon0.15_PT012H.grib2 2026-05-04 16:06 504K
20260504T12Z_MSC_GDPS_WindSpeed_IsbL-0005_LatLon0.15_PT012H.grib2 2026-05-04 16:06 705K
20260504T12Z_MSC_GDPS_WindSpeed_IsbL-0010_LatLon0.15_PT012H.grib2 2026-05-04 16:06 639K
20260504T12Z_MSC_GDPS_WindSpeed_IsbL-0020_LatLon0.15_PT012H.grib2 2026-05-04 16:06 675K
20260504T12Z_MSC_GDPS_WindSpeed_IsbL-0030_LatLon0.15_PT012H.grib2 2026-05-04 16:06 876K
20260504T12Z_MSC_GDPS_WindSpeed_IsbL-0050_LatLon0.15_PT012H.grib2 2026-05-04 16:06 922K
20260504T12Z_MSC_GDPS_WindSpeed_IsbL-0100_LatLon0.15_PT012H.grib2 2026-05-04 16:06 1.1M
20260504T12Z_MSC_GDPS_WindSpeed_IsbL-0150_LatLon0.15_PT012H.grib2 2026-05-04 16:06 943K
20260504T12Z_MSC_GDPS_WindSpeed_IsbL-0175_LatLon0.15_PT012H.grib2 2026-05-04 16:06 1.0M
20260504T12Z_MSC_GDPS_WindSpeed_IsbL-0200_LatLon0.15_PT012H.grib2 2026-05-04 16:06 1.1M
20260504T12Z_MSC_GDPS_WindSpeed_IsbL-0225_LatLon0.15_PT012H.grib2 2026-05-04 16:06 1.1M
20260504T12Z_MSC_GDPS_WindSpeed_IsbL-0250_LatLon0.15_PT012H.grib2 2026-05-04 16:06 1.1M
20260504T12Z_MSC_GDPS_WindSpeed_IsbL-0275_LatLon0.15_PT012H.grib2 2026-05-04 16:06 1.1M
20260504T12Z_MSC_GDPS_WindSpeed_IsbL-0300_LatLon0.15_PT012H.grib2 2026-05-04 16:06 1.1M
20260504T12Z_MSC_GDPS_WindSpeed_IsbL-0350_LatLon0.15_PT012H.grib2 2026-05-04 16:06 1.1M
20260504T12Z_MSC_GDPS_WindSpeed_IsbL-0400_LatLon0.15_PT012H.grib2 2026-05-04 16:06 1.1M
20260504T12Z_MSC_GDPS_WindSpeed_IsbL-0450_LatLon0.15_PT012H.grib2 2026-05-04 16:06 1.1M
20260504T12Z_MSC_GDPS_WindSpeed_IsbL-0500_LatLon0.15_PT012H.grib2 2026-05-04 16:06 1.1M
20260504T12Z_MSC_GDPS_WindSpeed_IsbL-0550_LatLon0.15_PT012H.grib2 2026-05-04 16:06 1.1M
20260504T12Z_MSC_GDPS_WindSpeed_IsbL-0600_LatLon0.15_PT012H.grib2 2026-05-04 16:06 1.1M
20260504T12Z_MSC_GDPS_WindSpeed_IsbL-0650_LatLon0.15_PT012H.grib2 2026-05-04 16:06 1.4M
20260504T12Z_MSC_GDPS_WindSpeed_IsbL-0700_LatLon0.15_PT012H.grib2 2026-05-04 16:06 1.5M
20260504T12Z_MSC_GDPS_WindSpeed_IsbL-0750_LatLon0.15_PT012H.grib2 2026-05-04 16:06 1.6M
20260504T12Z_MSC_GDPS_WindSpeed_IsbL-0800_LatLon0.15_PT012H.grib2 2026-05-04 16:06 1.6M
20260504T12Z_MSC_GDPS_WindSpeed_IsbL-0850_LatLon0.15_PT012H.grib2 2026-05-04 16:06 1.7M
20260504T12Z_MSC_GDPS_WindSpeed_IsbL-0875_LatLon0.15_PT012H.grib2 2026-05-04 16:06 1.8M
20260504T12Z_MSC_GDPS_WindSpeed_IsbL-0900_LatLon0.15_PT012H.grib2 2026-05-04 16:06 1.8M
20260504T12Z_MSC_GDPS_WindSpeed_IsbL-0925_LatLon0.15_PT012H.grib2 2026-05-04 16:06 1.8M
20260504T12Z_MSC_GDPS_WindSpeed_IsbL-0950_LatLon0.15_PT012H.grib2 2026-05-04 16:06 1.8M
20260504T12Z_MSC_GDPS_WindSpeed_IsbL-0970_LatLon0.15_PT012H.grib2 2026-05-04 16:06 1.9M
20260504T12Z_MSC_GDPS_WindSpeed_IsbL-0985_LatLon0.15_PT012H.grib2 2026-05-04 16:06 1.9M
20260504T12Z_MSC_GDPS_WindSpeed_IsbL-1000_LatLon0.15_PT012H.grib2 2026-05-04 16:06 1.9M
20260504T12Z_MSC_GDPS_WindSpeed_IsbL-1015_LatLon0.15_PT012H.grib2 2026-05-04 16:06 1.8M
20260504T12Z_MSC_GDPS_WindU_AGL-10m_LatLon0.15_PT012H.grib2 2026-05-04 16:06 1.3M
20260504T12Z_MSC_GDPS_WindU_AGL-120m_LatLon0.15_PT012H.grib2 2026-05-04 16:06 1.0M
20260504T12Z_MSC_GDPS_WindU_AGL-40m_LatLon0.15_PT012H.grib2 2026-05-04 16:06 965K
20260504T12Z_MSC_GDPS_WindU_AGL-80m_LatLon0.15_PT012H.grib2 2026-05-04 16:06 972K
20260504T12Z_MSC_GDPS_WindU_IsbL-0001_LatLon0.15_PT012H.grib2 2026-05-04 16:06 510K
20260504T12Z_MSC_GDPS_WindU_IsbL-0005_LatLon0.15_PT012H.grib2 2026-05-04 16:06 706K
20260504T12Z_MSC_GDPS_WindU_IsbL-0010_LatLon0.15_PT012H.grib2 2026-05-04 16:06 713K
20260504T12Z_MSC_GDPS_WindU_IsbL-0020_LatLon0.15_PT012H.grib2 2026-05-04 16:06 741K
20260504T12Z_MSC_GDPS_WindU_IsbL-0030_LatLon0.15_PT012H.grib2 2026-05-04 16:06 751K
20260504T12Z_MSC_GDPS_WindU_IsbL-0050_LatLon0.15_PT012H.grib2 2026-05-04 16:06 711K
20260504T12Z_MSC_GDPS_WindU_IsbL-0100_LatLon0.15_PT012H.grib2 2026-05-04 16:06 928K
20260504T12Z_MSC_GDPS_WindU_IsbL-0150_LatLon0.15_PT012H.grib2 2026-05-04 16:06 1.0M
20260504T12Z_MSC_GDPS_WindU_IsbL-0175_LatLon0.15_PT012H.grib2 2026-05-04 16:06 1.0M
20260504T12Z_MSC_GDPS_WindU_IsbL-0200_LatLon0.15_PT012H.grib2 2026-05-04 16:06 837K
20260504T12Z_MSC_GDPS_WindU_IsbL-0225_LatLon0.15_PT012H.grib2 2026-05-04 16:06 852K
20260504T12Z_MSC_GDPS_WindU_IsbL-0250_LatLon0.15_PT012H.grib2 2026-05-04 16:06 914K
20260504T12Z_MSC_GDPS_WindU_IsbL-0275_LatLon0.15_PT012H.grib2 2026-05-04 16:06 942K
20260504T12Z_MSC_GDPS_WindU_IsbL-0300_LatLon0.15_PT012H.grib2 2026-05-04 16:06 879K
20260504T12Z_MSC_GDPS_WindU_IsbL-0350_LatLon0.15_PT012H.grib2 2026-05-04 16:06 895K
20260504T12Z_MSC_GDPS_WindU_IsbL-0400_LatLon0.15_PT012H.grib2 2026-05-04 16:06 899K
20260504T12Z_MSC_GDPS_WindU_IsbL-0450_LatLon0.15_PT012H.grib2 2026-05-04 16:06 1.1M
20260504T12Z_MSC_GDPS_WindU_IsbL-0500_LatLon0.15_PT012H.grib2 2026-05-04 16:06 1.1M
20260504T12Z_MSC_GDPS_WindU_IsbL-0550_LatLon0.15_PT012H.grib2 2026-05-04 16:06 1.1M
20260504T12Z_MSC_GDPS_WindU_IsbL-0600_LatLon0.15_PT012H.grib2 2026-05-04 16:06 1.2M
20260504T12Z_MSC_GDPS_WindU_IsbL-0650_LatLon0.15_PT012H.grib2 2026-05-04 16:06 1.2M
20260504T12Z_MSC_GDPS_WindU_IsbL-0700_LatLon0.15_PT012H.grib2 2026-05-04 16:06 1.2M
20260504T12Z_MSC_GDPS_WindU_IsbL-0750_LatLon0.15_PT012H.grib2 2026-05-04 16:06 1.3M
20260504T12Z_MSC_GDPS_WindU_IsbL-0800_LatLon0.15_PT012H.grib2 2026-05-04 16:06 1.4M
20260504T12Z_MSC_GDPS_WindU_IsbL-0850_LatLon0.15_PT012H.grib2 2026-05-04 16:06 1.4M
20260504T12Z_MSC_GDPS_WindU_IsbL-0875_LatLon0.15_PT012H.grib2 2026-05-04 16:06 1.5M
20260504T12Z_MSC_GDPS_WindU_IsbL-0900_LatLon0.15_PT012H.grib2 2026-05-04 16:06 1.5M
20260504T12Z_MSC_GDPS_WindU_IsbL-0925_LatLon0.15_PT012H.grib2 2026-05-04 16:06 1.5M
20260504T12Z_MSC_GDPS_WindU_IsbL-0950_LatLon0.15_PT012H.grib2 2026-05-04 16:06 1.4M
20260504T12Z_MSC_GDPS_WindU_IsbL-0970_LatLon0.15_PT012H.grib2 2026-05-04 16:06 1.4M
20260504T12Z_MSC_GDPS_WindU_IsbL-0985_LatLon0.15_PT012H.grib2 2026-05-04 16:06 1.4M
20260504T12Z_MSC_GDPS_WindU_IsbL-1000_LatLon0.15_PT012H.grib2 2026-05-04 16:06 1.4M
20260504T12Z_MSC_GDPS_WindU_IsbL-1015_LatLon0.15_PT012H.grib2 2026-05-04 16:06 1.3M
20260504T12Z_MSC_GDPS_WindV_AGL-10m_LatLon0.15_PT012H.grib2 2026-05-04 16:06 1.6M
20260504T12Z_MSC_GDPS_WindV_AGL-120m_LatLon0.15_PT012H.grib2 2026-05-04 16:06 971K
20260504T12Z_MSC_GDPS_WindV_AGL-40m_LatLon0.15_PT012H.grib2 2026-05-04 16:06 964K
20260504T12Z_MSC_GDPS_WindV_AGL-80m_LatLon0.15_PT012H.grib2 2026-05-04 16:06 970K
20260504T12Z_MSC_GDPS_WindV_IsbL-0001_LatLon0.15_PT012H.grib2 2026-05-04 16:06 723K
20260504T12Z_MSC_GDPS_WindV_IsbL-0005_LatLon0.15_PT012H.grib2 2026-05-04 16:06 868K
20260504T12Z_MSC_GDPS_WindV_IsbL-0010_LatLon0.15_PT012H.grib2 2026-05-04 16:06 894K
20260504T12Z_MSC_GDPS_WindV_IsbL-0020_LatLon0.15_PT012H.grib2 2026-05-04 16:06 863K
20260504T12Z_MSC_GDPS_WindV_IsbL-0030_LatLon0.15_PT012H.grib2 2026-05-04 16:06 868K
20260504T12Z_MSC_GDPS_WindV_IsbL-0050_LatLon0.15_PT012H.grib2 2026-05-04 16:06 913K
20260504T12Z_MSC_GDPS_WindV_IsbL-0100_LatLon0.15_PT012H.grib2 2026-05-04 16:06 856K
20260504T12Z_MSC_GDPS_WindV_IsbL-0150_LatLon0.15_PT012H.grib2 2026-05-04 16:06 1.0M
20260504T12Z_MSC_GDPS_WindV_IsbL-0175_LatLon0.15_PT012H.grib2 2026-05-04 16:06 1.0M
20260504T12Z_MSC_GDPS_WindV_IsbL-0200_LatLon0.15_PT012H.grib2 2026-05-04 16:06 836K
20260504T12Z_MSC_GDPS_WindV_IsbL-0225_LatLon0.15_PT012H.grib2 2026-05-04 16:06 906K
20260504T12Z_MSC_GDPS_WindV_IsbL-0250_LatLon0.15_PT012H.grib2 2026-05-04 16:06 909K
20260504T12Z_MSC_GDPS_WindV_IsbL-0275_LatLon0.15_PT012H.grib2 2026-05-04 16:06 937K
20260504T12Z_MSC_GDPS_WindV_IsbL-0300_LatLon0.15_PT012H.grib2 2026-05-04 16:06 931K
20260504T12Z_MSC_GDPS_WindV_IsbL-0350_LatLon0.15_PT012H.grib2 2026-05-04 16:06 947K
20260504T12Z_MSC_GDPS_WindV_IsbL-0400_LatLon0.15_PT012H.grib2 2026-05-04 16:06 890K
20260504T12Z_MSC_GDPS_WindV_IsbL-0450_LatLon0.15_PT012H.grib2 2026-05-04 16:06 892K
20260504T12Z_MSC_GDPS_WindV_IsbL-0500_LatLon0.15_PT012H.grib2 2026-05-04 16:06 1.1M
20260504T12Z_MSC_GDPS_WindV_IsbL-0550_LatLon0.15_PT012H.grib2 2026-05-04 16:06 1.1M
20260504T12Z_MSC_GDPS_WindV_IsbL-0600_LatLon0.15_PT012H.grib2 2026-05-04 16:06 1.1M
20260504T12Z_MSC_GDPS_WindV_IsbL-0650_LatLon0.15_PT012H.grib2 2026-05-04 16:06 1.2M
20260504T12Z_MSC_GDPS_WindV_IsbL-0700_LatLon0.15_PT012H.grib2 2026-05-04 16:06 1.2M
20260504T12Z_MSC_GDPS_WindV_IsbL-0750_LatLon0.15_PT012H.grib2 2026-05-04 16:06 1.3M
20260504T12Z_MSC_GDPS_WindV_IsbL-0800_LatLon0.15_PT012H.grib2 2026-05-04 16:06 1.3M
20260504T12Z_MSC_GDPS_WindV_IsbL-0850_LatLon0.15_PT012H.grib2 2026-05-04 16:06 1.4M
20260504T12Z_MSC_GDPS_WindV_IsbL-0875_LatLon0.15_PT012H.grib2 2026-05-04 16:06 1.4M
20260504T12Z_MSC_GDPS_WindV_IsbL-0900_LatLon0.15_PT012H.grib2 2026-05-04 16:06 1.5M
20260504T12Z_MSC_GDPS_WindV_IsbL-0925_LatLon0.15_PT012H.grib2 2026-05-04 16:06 1.5M
20260504T12Z_MSC_GDPS_WindV_IsbL-0950_LatLon0.15_PT012H.grib2 2026-05-04 16:06 1.4M
20260504T12Z_MSC_GDPS_WindV_IsbL-0970_LatLon0.15_PT012H.grib2 2026-05-04 16:06 1.4M
20260504T12Z_MSC_GDPS_WindV_IsbL-0985_LatLon0.15_PT012H.grib2 2026-05-04 16:06 1.4M
20260504T12Z_MSC_GDPS_WindV_IsbL-1000_LatLon0.15_PT012H.grib2 2026-05-04 16:06 1.4M
20260504T12Z_MSC_GDPS_WindV_IsbL-1015_LatLon0.15_PT012H.grib2 2026-05-04 16:06 1.6M